Hourly Weather Rudovka

Today, 10 April, Saturday

Time Temperature Precipitation Wind Pressure Humidity
00:00 +2°C° 0 mm 3 mps 754 mmHg 75%
01:00 +1°C° 0 mm 3 mps 754 mmHg 78%
02:00 +1°C° 0 mm 3 mps 754 mmHg 80%
03:00 +1°C° 0 mm 3 mps 754 mmHg 82%
04:00 +1°C° 0 mm 3 mps 754 mmHg 82%
05:00 0°C° 0 mm 3 mps 754 mmHg 82%
06:00 0°C° 0 mm 3 mps 755 mmHg 83%
07:00 +1°C° 0 mm 3 mps 755 mmHg 75%
08:00 +3°C° 0 mm 4 mps 755 mmHg 68%
09:00 +4°C° 0 mm 4 mps 754 mmHg 60%
10:00 +5°C° 0 mm 5 mps 754 mmHg 58%
11:00 +5°C° 0 mm 5 mps 754 mmHg 56%
12:00 +6°C° 0 mm 5 mps 754 mmHg 55%
13:00 +6°C° 0 mm 5 mps 754 mmHg 56%
14:00 +6°C° 0 mm 5 mps 754 mmHg 57%
15:00 +6°C° 0 mm 5 mps 753 mmHg 59%
16:00 +5°C° 0 mm 5 mps 753 mmHg 63%
17:00 +5°C° 0 mm 4 mps 753 mmHg 68%
18:00 +4°C° 0 mm 4 mps 753 mmHg 72%
19:00 +4°C° 0 mm 4 mps 753 mmHg 76%
20:00 +3°C° 0 mm 4 mps 753 mmHg 81%
21:00 +3°C° 0 mm 4 mps 753 mmHg 85%
22:00 +2°C° 0 mm 3 mps 753 mmHg 87%
23:00 +2°C° 0 mm 3 mps 753 mmHg 88%

Tomorrow, 11 April, Sunday

Time Temperature Precipitation Wind Pressure Humidity
00:00 +2°C° 0 mm 3 mps 754 mmHg 90%
01:00 0°C° 0 mm 4 mps 754 mmHg 90%
02:00 0°C° 0 mm 4 mps 754 mmHg 89%
03:00 0°C° 0 mm 4 mps 754 mmHg 89%
04:00 -1°C° 0 mm 4 mps 754 mmHg 88%
05:00 -1°C° 0 mm 4 mps 755 mmHg 86%
06:00 -1°C° 0 mm 4 mps 755 mmHg 85%
07:00 0°C° 0 mm 5 mps 755 mmHg 79%
08:00 +2°C° 0 mm 5 mps 755 mmHg 73%
09:00 +3°C° 0 mm 6 mps 756 mmHg 67%
10:00 +5°C° 0 mm 6 mps 756 mmHg 61%
11:00 +7°C° 0 mm 6 mps 756 mmHg 56%
12:00 +9°C° 0 mm 6 mps 756 mmHg 50%
13:00 +9°C° 0 mm 6 mps 756 mmHg 52%
14:00 +10°C° 0 mm 6 mps 756 mmHg 54%
15:00 +10°C° 0 mm 6 mps 756 mmHg 56%
16:00 +9°C° 0.1 mm 6 mps 756 mmHg 63%
17:00 +9°C° 0.1 mm 6 mps 756 mmHg 70%
18:00 +8°C° 0.1 mm 6 mps 756 mmHg 78%
19:00 +7°C° 0.2 mm 5 mps 756 mmHg 82%
20:00 +6°C° 0.2 mm 5 mps 756 mmHg 86%
21:00 +6°C° 0.2 mm 4 mps 756 mmHg 90%
22:00 +5°C° 0 mm 4 mps 756 mmHg 91%
23:00 +5°C° 0 mm 4 mps 756 mmHg 93%

Day after tomorrow, 12 April, Monday

Time Temperature Precipitation Wind Pressure Humidity
00:00 +5°C° 0 mm 4 mps 756 mmHg 94%
01:00 +5°C° 0 mm 4 mps 756 mmHg 94%
02:00 +5°C° 0 mm 4 mps 756 mmHg 94%
03:00 +5°C° 0 mm 4 mps 756 mmHg 95%
04:00 +5°C° 0 mm 4 mps 756 mmHg 94%
05:00 +5°C° 0 mm 4 mps 756 mmHg 94%
06:00 +5°C° 0 mm 4 mps 756 mmHg 94%
07:00 +6°C° 0 mm 4 mps 756 mmHg 89%
08:00 +8°C° 0 mm 4 mps 756 mmHg 83%
09:00 +10°C° 0 mm 4 mps 756 mmHg 78%
10:00 +12°C° 0 mm 4 mps 756 mmHg 70%
11:00 +14°C° 0 mm 4 mps 756 mmHg 62%
12:00 +17°C° 0 mm 4 mps 756 mmHg 55%
13:00 +19°C° 0 mm 4 mps 755 mmHg 50%
14:00 +20°C° 0 mm 5 mps 755 mmHg 44%
15:00 +21°C° 0 mm 5 mps 755 mmHg 39%
16:00 +20°C° 0 mm 4 mps 755 mmHg 43%
17:00 +19°C° 0 mm 4 mps 755 mmHg 46%
18:00 +18°C° 0 mm 4 mps 755 mmHg 50%
19:00 +17°C° 0 mm 4 mps 755 mmHg 56%
20:00 +14°C° 0 mm 4 mps 755 mmHg 62%
21:00 +13°C° 0 mm 4 mps 756 mmHg 68%
22:00 +12°C° 0 mm 4 mps 756 mmHg 71%
23:00 +11°C° 0 mm 4 mps 756 mmHg 73%

13 April, Tuesday

Time Temperature Precipitation Wind Pressure Humidity
00:00 +11°C° 0 mm 4 mps 756 mmHg 76%
01:00 +10°C° 0 mm 3 mps 756 mmHg 76%
02:00 +9°C° 0 mm 3 mps 756 mmHg 76%
03:00 +9°C° 0 mm 3 mps 756 mmHg 76%
04:00 +8°C° 0 mm 3 mps 756 mmHg 75%
05:00 +8°C° 0 mm 3 mps 756 mmHg 74%
06:00 +7°C° 0 mm 3 mps 756 mmHg 73%
07:00 +8°C° 0 mm 4 mps 756 mmHg 66%
08:00 +10°C° 0 mm 5 mps 756 mmHg 59%
09:00 +13°C° 0 mm 5 mps 756 mmHg 52%
10:00 +14°C° 0 mm 5 mps 755 mmHg 47%
11:00 +16°C° 0 mm 5 mps 755 mmHg 42%
12:00 +17°C° 0 mm 6 mps 755 mmHg 37%
13:00 +19°C° 0 mm 5 mps 755 mmHg 35%
14:00 +20°C° 0 mm 5 mps 755 mmHg 32%
15:00 +20°C° 0 mm 5 mps 754 mmHg 30%
16:00 +20°C° 0 mm 4 mps 754 mmHg 34%
17:00 +19°C° 0 mm 3 mps 754 mmHg 39%
18:00 +18°C° 0 mm 3 mps 754 mmHg 43%
19:00 +16°C° 0 mm 3 mps 754 mmHg 48%
20:00 +14°C° 0 mm 3 mps 754 mmHg 54%
21:00 +12°C° 0 mm 3 mps 755 mmHg 59%
22:00 +12°C° 0 mm 3 mps 754 mmHg 60%
23:00 +11°C° 0 mm 3 mps 754 mmHg 62%

14 April, Wednesday

Time Temperature Precipitation Wind Pressure Humidity
00:00 +10°C° 0 mm 3 mps 754 mmHg 63%
01:00 +10°C° 0 mm 3 mps 754 mmHg 64%
02:00 +9°C° 0 mm 3 mps 754 mmHg 64%
03:00 +9°C° 0 mm 3 mps 754 mmHg 65%
04:00 +9°C° 0 mm 3 mps 754 mmHg 66%
05:00 +8°C° 0 mm 3 mps 754 mmHg 67%
06:00 +8°C° 0 mm 3 mps 754 mmHg 69%
07:00 +10°C° 0 mm 4 mps 754 mmHg 63%
08:00 +12°C° 0 mm 4 mps 753 mmHg 58%
09:00 +13°C° 0 mm 5 mps 753 mmHg 52%
10:00 +15°C° 0 mm 5 mps 753 mmHg 47%
11:00 +17°C° 0 mm 5 mps 753 mmHg 41%
12:00 +19°C° 0 mm 5 mps 752 mmHg 36%
13:00 +20°C° 0 mm 5 mps 752 mmHg 33%
14:00 +20°C° 0 mm 5 mps 752 mmHg 31%
15:00 +21°C° 0 mm 5 mps 751 mmHg 29%
16:00 +20°C° 0 mm 5 mps 751 mmHg 33%
17:00 +19°C° 0 mm 4 mps 751 mmHg 37%
18:00 +18°C° 0 mm 4 mps 751 mmHg 41%
19:00 +17°C° 0 mm 4 mps 750 mmHg 46%
20:00 +14°C° 0 mm 3 mps 750 mmHg 51%
21:00 +13°C° 0 mm 3 mps 750 mmHg 56%
22:00 +12°C° 0 mm 3 mps 750 mmHg 58%
23:00 +12°C° 0 mm 3 mps 750 mmHg 59%

15 April, Thursday

Time Temperature Precipitation Wind Pressure Humidity
00:00 +11°C° 0 mm 3 mps 750 mmHg 61%
01:00 +10°C° 0 mm 3 mps 750 mmHg 62%
02:00 +10°C° 0 mm 4 mps 750 mmHg 63%
03:00 +8°C° 0 mm 4 mps 749 mmHg 64%
04:00 +8°C° 0 mm 4 mps 749 mmHg 63%
05:00 +8°C° 0 mm 4 mps 749 mmHg 63%
06:00 +8°C° 0 mm 4 mps 749 mmHg 63%
07:00 +9°C° 0 mm 5 mps 749 mmHg 58%
08:00 +12°C° 0 mm 5 mps 749 mmHg 54%
09:00 +13°C° 0 mm 6 mps 749 mmHg 50%
10:00 +14°C° 0 mm 6 mps 748 mmHg 48%
11:00 +15°C° 0 mm 6 mps 748 mmHg 46%
12:00 +16°C° 0 mm 6 mps 748 mmHg 44%
13:00 +17°C° 0 mm 6 mps 748 mmHg 40%
14:00 +18°C° 0 mm 7 mps 747 mmHg 36%
15:00 +20°C° 0 mm 7 mps 747 mmHg 32%
16:00 +19°C° 0 mm 6 mps 747 mmHg 37%
17:00 +19°C° 0 mm 5 mps 747 mmHg 41%
18:00 +18°C° 0 mm 4 mps 746 mmHg 45%
19:00 +17°C° 0 mm 4 mps 746 mmHg 50%
20:00 +16°C° 0 mm 3 mps 746 mmHg 55%
21:00 +14°C° 0 mm 3 mps 746 mmHg 59%
22:00 +13°C° 0 mm 3 mps 746 mmHg 62%
23:00 +13°C° 0 mm 3 mps 746 mmHg 65%
Show more